Year,Month,Day,Hour,Minute,Value (Times are PST for temperature in C)
2016,01,20,00,00,6.30
2016,01,20,00,01,6.30
2016,01,20,00,02,6.30
2016,01,20,00,03,6.30
2016,01,20,00,04,6.30
2016,01,20,00,05,6.30
2016,01,20,00,06,6.30
2016,01,20,00,07,6.20
2016,01,20,00,08,6.20
2016,01,20,00,09,6.20
2016,01,20,00,10,6.20
2016,01,20,00,11,6.20
2016,01,20,00,12,6.20
2016,01,20,00,13,6.20
2016,01,20,00,14,6.20
2016,01,20,00,15,6.20
2016,01,20,00,16,6.10
2016,01,20,00,17,6.10
2016,01,20,00,18,6.10
2016,01,20,00,19,6.10
2016,01,20,00,20,6.00
2016,01,20,00,21,6.00
2016,01,20,00,22,6.00
2016,01,20,00,23,6.00
2016,01,20,00,24,6.00
2016,01,20,00,25,5.90
2016,01,20,00,26,5.90
2016,01,20,00,27,5.90
2016,01,20,00,28,5.90
2016,01,20,00,29,5.80
2016,01,20,00,30,5.80
2016,01,20,00,31,5.80
2016,01,20,00,32,5.70
2016,01,20,00,33,5.70
2016,01,20,00,34,5.70
2016,01,20,00,35,5.70
2016,01,20,00,36,5.70
2016,01,20,00,37,5.70
2016,01,20,00,38,5.70
2016,01,20,00,39,5.70
2016,01,20,00,40,5.70
2016,01,20,00,41,5.70
2016,01,20,00,42,5.70
2016,01,20,00,43,5.60
2016,01,20,00,44,5.60
2016,01,20,00,45,5.60
2016,01,20,00,46,5.60
2016,01,20,00,47,5.60
2016,01,20,00,48,5.60
2016,01,20,00,49,5.50
2016,01,20,00,50,5.50
2016,01,20,00,51,5.50
2016,01,20,00,52,5.50
2016,01,20,00,53,5.50
2016,01,20,00,54,5.40
2016,01,20,00,55,5.40
2016,01,20,00,56,5.40
2016,01,20,00,57,5.40
2016,01,20,00,58,5.40
2016,01,20,00,59,5.40
2016,01,20,01,00,5.40
2016,01,20,01,01,5.40
2016,01,20,01,02,5.40
2016,01,20,01,03,5.30
2016,01,20,01,04,5.30
2016,01,20,01,05,5.30
2016,01,20,01,06,5.30
2016,01,20,01,07,5.30
2016,01,20,01,08,5.30
2016,01,20,01,09,5.30
2016,01,20,01,10,5.30
2016,01,20,01,11,5.30
2016,01,20,01,12,5.30
2016,01,20,01,13,5.30
2016,01,20,01,14,5.30
2016,01,20,01,15,5.30
2016,01,20,01,16,5.30
2016,01,20,01,17,5.30
2016,01,20,01,18,5.30
2016,01,20,01,19,5.30
2016,01,20,01,20,5.30
2016,01,20,01,21,5.30
2016,01,20,01,22,5.30
2016,01,20,01,23,5.30
2016,01,20,01,24,5.30
2016,01,20,01,25,5.30
2016,01,20,01,26,5.30
2016,01,20,01,27,5.30
2016,01,20,01,28,5.30
2016,01,20,01,29,5.30
2016,01,20,01,30,5.30
2016,01,20,01,31,5.30
2016,01,20,01,32,5.30
2016,01,20,01,33,5.30
2016,01,20,01,34,5.30
2016,01,20,01,35,5.30
2016,01,20,01,36,5.30
2016,01,20,01,37,5.30
2016,01,20,01,38,5.30
2016,01,20,01,39,5.30
2016,01,20,01,40,5.30
2016,01,20,01,41,5.30
2016,01,20,01,42,5.30
2016,01,20,01,43,5.30
2016,01,20,01,44,5.30
2016,01,20,01,45,5.30
2016,01,20,01,46,5.30
2016,01,20,01,47,5.30
2016,01,20,01,48,5.30
2016,01,20,01,49,5.30
2016,01,20,01,50,5.30
2016,01,20,01,51,5.30
2016,01,20,01,52,5.30
2016,01,20,01,53,5.30
2016,01,20,01,54,5.30
2016,01,20,01,55,5.30
2016,01,20,01,56,5.20
2016,01,20,01,57,5.20
2016,01,20,01,58,5.20
2016,01,20,01,59,5.10
2016,01,20,02,00,5.10
2016,01,20,02,01,5.10
2016,01,20,02,02,5.10
2016,01,20,02,03,5.10
2016,01,20,02,04,5.10
2016,01,20,02,05,5.10
2016,01,20,02,06,5.10
2016,01,20,02,07,5.10
2016,01,20,02,08,5.10
2016,01,20,02,09,5.10
2016,01,20,02,10,5.10
2016,01,20,02,11,5.10
2016,01,20,02,12,5.00
2016,01,20,02,13,4.90
2016,01,20,02,14,4.90
2016,01,20,02,15,4.90
2016,01,20,02,16,4.90
2016,01,20,02,17,4.90
2016,01,20,02,18,4.90
2016,01,20,02,19,4.80
2016,01,20,02,20,4.80
2016,01,20,02,21,4.70
2016,01,20,02,22,4.70
2016,01,20,02,23,4.70
2016,01,20,02,24,4.60
2016,01,20,02,25,4.60
2016,01,20,02,26,4.60
2016,01,20,02,27,4.60
2016,01,20,02,28,4.50
2016,01,20,02,29,4.50
2016,01,20,02,30,4.40
2016,01,20,02,31,4.40
2016,01,20,02,32,4.40
2016,01,20,02,33,4.30
2016,01,20,02,34,4.30
2016,01,20,02,35,4.30
2016,01,20,02,36,4.30
2016,01,20,02,37,4.20
2016,01,20,02,38,4.20
2016,01,20,02,39,4.20
2016,01,20,02,40,4.20
2016,01,20,02,41,4.20
2016,01,20,02,42,4.20
2016,01,20,02,43,4.20
2016,01,20,02,44,4.10
2016,01,20,02,45,4.10
2016,01,20,02,46,4.10
2016,01,20,02,47,4.10
2016,01,20,02,48,4.10
2016,01,20,02,49,4.10
2016,01,20,02,50,4.00
2016,01,20,02,51,4.00
2016,01,20,02,52,4.00
2016,01,20,02,53,4.00
2016,01,20,02,54,4.00
2016,01,20,02,55,4.00
2016,01,20,02,56,4.00
2016,01,20,02,57,4.00
2016,01,20,02,58,4.00
2016,01,20,02,59,4.00
2016,01,20,03,00,4.00
2016,01,20,03,01,4.00
2016,01,20,03,02,4.00
2016,01,20,03,03,4.00
2016,01,20,03,04,3.90
2016,01,20,03,05,3.90
2016,01,20,03,06,3.90
2016,01,20,03,07,3.90
2016,01,20,03,08,3.90
2016,01,20,03,09,3.90
2016,01,20,03,10,3.90
2016,01,20,03,11,3.90
2016,01,20,03,12,3.90
2016,01,20,03,13,3.90
2016,01,20,03,14,3.90
2016,01,20,03,15,3.90
2016,01,20,03,16,3.90
2016,01,20,03,17,3.90
2016,01,20,03,18,3.90
2016,01,20,03,19,3.90
2016,01,20,03,20,3.80
2016,01,20,03,21,3.80
2016,01,20,03,22,3.80
2016,01,20,03,23,3.80
2016,01,20,03,24,3.80
2016,01,20,03,25,3.80
2016,01,20,03,26,3.80
2016,01,20,03,27,3.80
2016,01,20,03,28,3.80
2016,01,20,03,29,3.80
2016,01,20,03,30,3.80
2016,01,20,03,31,3.80
2016,01,20,03,32,3.80
2016,01,20,03,33,3.80
2016,01,20,03,34,3.80
2016,01,20,03,35,3.80
2016,01,20,03,36,3.80
2016,01,20,03,37,3.80
2016,01,20,03,38,3.80
2016,01,20,03,39,3.80
2016,01,20,03,40,3.80
2016,01,20,03,41,3.80
2016,01,20,03,42,3.80
2016,01,20,03,43,3.80
2016,01,20,03,44,3.80
2016,01,20,03,45,3.80
2016,01,20,03,46,3.80
2016,01,20,03,47,3.80
2016,01,20,03,48,3.80
2016,01,20,03,49,3.80
2016,01,20,03,50,3.80
2016,01,20,03,51,3.80
2016,01,20,03,52,3.80
2016,01,20,03,53,3.80
2016,01,20,03,54,3.80
2016,01,20,03,55,3.80
2016,01,20,03,56,3.80
2016,01,20,03,57,3.80
2016,01,20,03,58,3.80
2016,01,20,03,59,3.80
2016,01,20,04,00,3.80
2016,01,20,04,01,3.80
2016,01,20,04,02,3.80
2016,01,20,04,03,3.80
2016,01,20,04,04,3.80
2016,01,20,04,05,3.80
2016,01,20,04,06,3.80
2016,01,20,04,07,3.80
2016,01,20,04,08,3.80
2016,01,20,04,09,3.80
2016,01,20,04,10,3.80
2016,01,20,04,11,3.80
2016,01,20,04,12,3.80
2016,01,20,04,13,3.80
2016,01,20,04,14,3.80
2016,01,20,04,15,3.70
2016,01,20,04,16,3.70
2016,01,20,04,17,3.70
2016,01,20,04,18,3.70
2016,01,20,04,19,3.70
2016,01,20,04,20,3.60
2016,01,20,04,21,3.60
2016,01,20,04,22,3.60
2016,01,20,04,23,3.60
2016,01,20,04,24,3.50
2016,01,20,04,25,3.50
2016,01,20,04,26,3.50
2016,01,20,04,27,3.50
2016,01,20,04,28,3.50
2016,01,20,04,29,3.50
2016,01,20,04,30,3.50
2016,01,20,04,31,3.50
2016,01,20,04,32,3.60
2016,01,20,04,33,3.60
2016,01,20,04,34,3.60
2016,01,20,04,35,3.60
2016,01,20,04,36,3.60
2016,01,20,04,37,3.60
2016,01,20,04,38,3.60
2016,01,20,04,39,3.60
2016,01,20,04,40,3.70
2016,01,20,04,41,3.70
2016,01,20,04,42,3.80
2016,01,20,04,43,3.80
2016,01,20,04,44,3.80
2016,01,20,04,45,3.90
2016,01,20,04,46,3.90
2016,01,20,04,47,4.00
2016,01,20,04,48,4.00
2016,01,20,04,49,4.00
2016,01,20,04,50,4.10
2016,01,20,04,51,4.20
2016,01,20,04,52,4.20
2016,01,20,04,53,4.20
2016,01,20,04,54,4.20
2016,01,20,04,55,4.20
2016,01,20,04,56,4.20
2016,01,20,04,57,4.30
2016,01,20,04,58,4.30
2016,01,20,04,59,4.30
2016,01,20,05,00,4.30
2016,01,20,05,01,4.40
2016,01,20,05,02,4.40
2016,01,20,05,03,4.40
2016,01,20,05,04,4.50
2016,01,20,05,05,4.50
2016,01,20,05,06,4.50
2016,01,20,05,07,4.50
2016,01,20,05,08,4.50
2016,01,20,05,09,4.50
2016,01,20,05,10,4.50
2016,01,20,05,11,4.50
2016,01,20,05,12,4.50
2016,01,20,05,13,4.50
2016,01,20,05,14,4.50
2016,01,20,05,15,4.50
2016,01,20,05,16,4.40
2016,01,20,05,17,4.40
2016,01,20,05,18,4.30
2016,01,20,05,19,4.20
2016,01,20,05,20,4.20
2016,01,20,05,21,4.10
2016,01,20,05,22,4.00
2016,01,20,05,23,4.00
2016,01,20,05,24,4.00
2016,01,20,05,25,3.90
2016,01,20,05,26,3.90
2016,01,20,05,27,3.80
2016,01,20,05,28,3.80
2016,01,20,05,29,3.80
2016,01,20,05,30,3.80
2016,01,20,05,31,3.80
2016,01,20,05,32,3.80
2016,01,20,05,33,3.80
2016,01,20,05,34,3.80
2016,01,20,05,35,3.80
2016,01,20,05,36,3.80
2016,01,20,05,37,3.80
2016,01,20,05,38,3.80
2016,01,20,05,39,3.80
2016,01,20,05,40,3.90
2016,01,20,05,41,3.90
2016,01,20,05,42,3.90
2016,01,20,05,43,3.90
2016,01,20,05,44,3.90
2016,01,20,05,45,3.90
2016,01,20,05,46,4.00
2016,01,20,05,47,4.00
2016,01,20,05,48,4.00
2016,01,20,05,49,4.00
2016,01,20,05,50,4.10
2016,01,20,05,51,4.10
2016,01,20,05,52,4.10
2016,01,20,05,53,4.20
2016,01,20,05,54,4.20
2016,01,20,05,55,4.20
2016,01,20,05,56,4.20
2016,01,20,05,57,4.20
2016,01,20,05,58,4.20
2016,01,20,05,59,4.20
2016,01,20,06,00,4.20
2016,01,20,06,01,4.20
2016,01,20,06,02,4.30
2016,01,20,06,03,4.30
2016,01,20,06,04,4.30
2016,01,20,06,05,4.30
2016,01,20,06,06,4.30
2016,01,20,06,07,4.40
2016,01,20,06,08,4.40
2016,01,20,06,09,4.50
2016,01,20,06,10,4.50
2016,01,20,06,11,4.60
2016,01,20,06,12,4.60
2016,01,20,06,13,4.70
2016,01,20,06,14,4.80
2016,01,20,06,15,4.80
2016,01,20,06,16,4.90
2016,01,20,06,17,5.00
2016,01,20,06,18,5.10
2016,01,20,06,19,5.10
2016,01,20,06,20,5.20
2016,01,20,06,21,5.20
2016,01,20,06,22,5.30
2016,01,20,06,23,5.30
2016,01,20,06,24,5.30
2016,01,20,06,25,5.30
2016,01,20,06,26,5.30
2016,01,20,06,27,5.30
2016,01,20,06,28,5.30
2016,01,20,06,29,5.30
2016,01,20,06,30,5.30
2016,01,20,06,31,5.30
2016,01,20,06,32,5.30
2016,01,20,06,33,5.30
2016,01,20,06,34,5.30
2016,01,20,06,35,5.30
2016,01,20,06,36,5.40
2016,01,20,06,37,5.40
2016,01,20,06,38,5.40
2016,01,20,06,39,5.40
2016,01,20,06,40,5.40
2016,01,20,06,41,5.40
2016,01,20,06,42,5.40
2016,01,20,06,43,5.40
2016,01,20,06,44,5.40
2016,01,20,06,45,5.40
2016,01,20,06,46,5.40
2016,01,20,06,47,5.40
2016,01,20,06,48,5.40
2016,01,20,06,49,5.40
2016,01,20,06,50,5.40
2016,01,20,06,51,5.40
2016,01,20,06,52,5.40
2016,01,20,06,53,5.40
2016,01,20,06,54,5.40
2016,01,20,06,55,5.40
2016,01,20,06,56,5.40
2016,01,20,06,57,5.40
2016,01,20,06,58,5.40
2016,01,20,06,59,5.40
2016,01,20,07,00,5.40
2016,01,20,07,01,5.40
2016,01,20,07,02,5.30
2016,01,20,07,03,5.30
2016,01,20,07,04,5.30
2016,01,20,07,05,5.30
2016,01,20,07,06,5.30
2016,01,20,07,07,5.30
2016,01,20,07,08,5.30
2016,01,20,07,09,5.30
2016,01,20,07,10,5.30
2016,01,20,07,11,5.30
2016,01,20,07,12,5.30
2016,01,20,07,13,5.30
2016,01,20,07,14,5.30
2016,01,20,07,15,5.30
